Location: Ammareddip?lem
(16.9681°N, 80.4999°E)
Time: 13:25:36
(UTC+00:00)

Envisat - Pass Details

Date: 22 October 2021
Orbit: 764 x 766 km, 98.2° (Epoch: 04 December)

Event Time Altitude Azimuth Distance (km) Brightness Sun altitude
Rises 22:23:49 0° 41° (NE) 3,222 6.7 -31.4°
Reaches altitude 10° 22:27:12 10° 65° (ENE) 2,295 6.2 -30.6°
Maximum altitude 22:29:54 14° 98° (E) 1,999 6.0 -30.0°
Drops below altitude 10° 22:32:35 10° 130° (SE) 2,292 6.1 -29.3°
Sets 22:35:57 0° 154° (SSE) 3,216 6.6 -28.5°
